Simultaneous Nadir Overpasses (SNOs) Predictions

Prediction of SNOs between AQUA and GOES-15 Satellite Orbit:

Table of predicted SNOs for the next 14.0 days since TLE Epoch: 6/1/2012
Index Date Time (AQUA) AQUA Lat,Lon GOES-15 Lat,Lon Distance(km) Time Diff (sec)
1 06/02/2012 10:26:08 -0.61,-132.69 -0.08,-135.34 299.69 80
2 06/02/2012 22:47:32 -0.44,-137.90 0.10,-135.33 291.45 80
3 06/04/2012 22:35:21 0.21,-134.95 0.10,-135.29 39.71 80
4 06/06/2012 22:23:09 0.80,-131.99 0.10,-135.24 370.44 80
5 06/07/2012 10:44:25 0.27,-137.15 -0.12,-135.22 218.59 80
6 06/09/2012 10:32:13 -0.34,-134.19 -0.12,-135.18 112.15 80
7 06/09/2012 22:53:37 -0.76,-139.39 0.14,-135.17 479.53 80
8 06/11/2012 10:20:01 -0.97,-131.24 -0.11,-135.13 442.74 80
9 06/11/2012 22:41:25 -0.13,-136.43 0.13,-135.12 148.95 80
10 06/13/2012 22:29:12 0.45,-133.46 0.14,-135.06 181.15 80
11 06/14/2012 10:50:28 0.62,-138.63 -0.16,-135.04 407.81 80




NCC Satellite Simultaneous Nadir Overpasses (SNOs) Prediction Service
